TimeMDT,TemperatureF,Dew PointF,Humidity,Sea Level PressureIn,VisibilityMPH,Wind Direction,Wind SpeedMPH,Gust SpeedMPH,PrecipitationIn,Events,Conditions,WindDirDegrees,DateUTC
12:53 AM,28.9,25.0,85,30.25,10.0,WNW,9.2,-,N/A,,Clear,290,2013-10-16 06:53:00
1:53 AM,27.0,24.1,89,30.24,10.0,West,8.1,-,N/A,,Clear,260,2013-10-16 07:53:00
2:53 AM,28.9,25.0,85,30.21,10.0,WNW,8.1,-,N/A,,Clear,290,2013-10-16 08:53:00
3:53 AM,26.1,23.0,88,30.21,10.0,West,6.9,-,N/A,,Scattered Clouds,260,2013-10-16 09:53:00
4:53 AM,30.9,27.0,85,30.20,10.0,West,6.9,-,N/A,,Overcast,260,2013-10-16 10:53:00
5:53 AM,28.9,25.0,85,30.20,10.0,WNW,8.1,-,N/A,,Clear,300,2013-10-16 11:53:00
6:53 AM,27.0,24.1,89,30.19,10.0,WNW,9.2,-,N/A,,Clear,300,2013-10-16 12:53:00
7:53 AM,30.0,25.0,82,30.18,10.0,West,5.8,-,N/A,,Clear,260,2013-10-16 13:53:00
8:53 AM,37.0,28.9,73,30.17,10.0,WSW,8.1,-,N/A,,Clear,240,2013-10-16 14:53:00
9:53 AM,43.0,30.0,60,30.15,10.0,WSW,12.7,-,N/A,,Clear,250,2013-10-16 15:53:00
10:53 AM,45.0,30.0,56,30.13,10.0,WSW,10.4,-,N/A,,Clear,250,2013-10-16 16:53:00
11:53 AM,45.0,28.0,52,30.12,10.0,WNW,11.5,-,N/A,,Clear,300,2013-10-16 17:53:00
12:53 PM,46.9,28.9,50,30.08,10.0,West,6.9,-,N/A,,Clear,270,2013-10-16 18:53:00
1:53 PM,51.1,27.0,39,30.05,10.0,Variable,5.8,-,N/A,,Clear,0,2013-10-16 19:53:00
2:53 PM,52.0,25.0,35,30.01,10.0,NW,6.9,-,N/A,,Clear,320,2013-10-16 20:53:00
3:53 PM,54.0,23.0,30,30.01,10.0,NW,8.1,-,N/A,,Clear,320,2013-10-16 21:53:00
4:53 PM,53.1,21.9,30,30.00,10.0,NNW,10.4,-,N/A,,Clear,340,2013-10-16 22:53:00
5:53 PM,48.0,27.0,44,30.01,10.0,NNW,6.9,-,N/A,,Clear,340,2013-10-16 23:53:00
6:53 PM,39.0,27.0,62,30.06,6.0,NNW,5.8,-,N/A,,Haze,340,2013-10-17 00:53:00
7:38 PM,35.6,26.6,70,30.00,2.5,WNW,4.6,-,N/A,,Haze,300,2013-10-17 01:38:00
7:53 PM,35.1,26.1,70,30.06,2.5,WNW,4.6,-,N/A,,Haze,300,2013-10-17 01:53:00
8:08 PM,32.0,24.8,75,30.00,3.0,WNW,5.8,-,N/A,,Haze,300,2013-10-17 02:08:00
8:53 PM,30.9,25.0,79,30.06,5.0,WNW,8.1,-,N/A,,Haze,290,2013-10-17 02:53:00
9:53 PM,34.0,27.0,75,30.05,3.0,WNW,11.5,-,N/A,,Haze,290,2013-10-17 03:53:00
10:53 PM,33.1,27.0,78,30.05,3.0,West,10.4,-,N/A,,Haze,280,2013-10-17 04:53:00
11:53 PM,33.1,27.0,78,30.04,3.0,WNW,11.5,-,N/A,,Haze,300,2013-10-17 05:53:00